Location: Big Prairie
(40.6673°N, 82.0952°W)
Time: 19:26:33
(UTC+00:00)

USA 276 - Pass Details

Date: 04 July 2022
Orbit: 366 x 369 km, 50.0° (Epoch: 12 July)

Event Time Altitude Azimuth Distance (km) Brightness Sun altitude
Rises 05:38:19 0° 307° (NW) 2,210 6.4 -26.4°
Reaches altitude 10° 05:40:28 10° 317° (NW) 1,360 5.4 -26.4°
Enters shadow 05:40:50 13° 321° (NW) 1,222 5.1 -26.4°
